Погода в Мамакане

Погода в Мамакане : погода сейчас, прогноз погоды и архив. Всё, что Вы хотите узнать о погоде в Мамакане!

Поиск расширенной информации на нашем сайте:

Другие новости

Новости СМИ2

Главная страница сайта

Новости сайта

02.10.2013

Напоминаем, что на нашем новом сайте вы можете получить высокодетализированные прогнозы погоды по пунктам России, СНГ и мира (включающие важные для авиации метеовеличины, такие как направление и скорость ветра, видимость, явления погоды, количество и форма облачности, нижняя и верхняя граница облачности), а также ознакомиться с разнообразными материалами по авиационной метеорологии и подборкой полезных ссылок на эту тему.

Сайт Метеоцентр.Азия посвящён разработке технологий оптимизации авиаметеорологического обслуживания, включая проектирование и перспективное создание нескольких автоматизированных авиаметеорологических систем:
- система выпуска высокодетальных прогностических карт явлений погоды для нижнего воздушного пространства по России и ближнему зарубежью;
- система верификации прогнозов TAF (выпускаемых синоптиками официальных АМСГ РФ и ближнего зарубежья) и AUTOTAF (выпускаемых сайтом Метеоцентр.Азия) - выявление ошибок, онлайн-сопоставление с фактической погодой METAR, автоматическое внесение коррективов в прогнозы при резком отклонении фактической погоды от прогноза, подсчёт оправдываемости прогнозов по элементам и в целом;
- система обработки, анализа и отображения авиаметеорологической информации для применения провайдерами метеорологической информации.

Рекомендуем: Моделирование и окрашивание бровей хной.

Погода в Мамакане - сегодня

Время (UTC), дата Ветер
(°,м/с) 
Видим.   Явления Облачность Т
(°С)
Тd
(°С)
f(%) Тe
(°С)
Pmin
(гПа)
dP
(гПа)
Po
(мм)
O2
(г/м3)
Тmin Tmax R s Состояние
почвы
09 25.04.17 240 (ЮЗ) 20000 м    9/0 средняя, верхняя 
[Ac lent|Ci fib]
+13.1 -8.9 21 +14  1025.1  -2  747  288           
12 25.04.17 260 (З) 20000 м    9/0 средняя, верхняя 
[Ac lent|Ci fib]
+8.7 -4.9 38 +10  1024.7  -0.8  746  292    +13.7       
15 25.04.17 тихо ()   н/о    9/0 верхняя 
[Ci fib]
+0.6 -4.8 67 +1  1025.7  0.1  746  300           
18 25.04.17 тихо ()   н/о    9/0 верхняя 
[Ci fib]
-2.5 -4.4 87 -3  1025.8  -0.2  746  304           
21 25.04.17 070 (В) 20000 м    9/0 средняя, верхняя 
[Ac lent|Ci fib]
-3.1 -4.1 93 -4  1024.3  -1.6  745  304           
00 26.04.17 110 (В) 20000 м    10/4 1000 м кучево-дожд., средняя 
[Cb cap|Ac und]
+0.6 -4 71 1022.9  -0.9  744  300  -3.5        влажная 
03 26.04.17 090 (В) 20000 м    10/8 1000 м кучево-дожд., верхняя 
[Cb cap|Cs]
+5.5 -4.4 49 +5  1019.8  -2.4  742  294           
06 26.04.17 280 (З) 3{10}  20000 м    9/3 1000 м средняя, верхняя 
[Sc diur, vesp|Ac lent|Ci fib]
+14.5 -5.1 25 +15  1017.4  -1.5  741  284           
09 26.04.17 290 (З) 4-10{12}  20000 м    9/0 средняя, верхняя 
[Ac lent|Ci fib]
+14.6 -7.4 21 +14  1016.8  -0.6  741  284           
12 26.04.17 280 (З) 1{10}  20000 м    10/0 средняя, верхняя 
[Ac lent|Cs]
+11.4 -4.2 33 +13  1017.1  741  287    +16.6       
15 26.04.17 тихо ()   н/о    10/6 1000 м кучево-дожд., верхняя 
[Cb cap|Cs]
+5.1 -1.4 63 +5  1017.3  -0.3  740  293           
18 26.04.17 тихо ()   н/о    10/8 1000 м кучево-дожд., верхняя 
[Cb cap|Cs]
+3 -1.8 71 +3  1016.8  -0.8  740  295           
21 26.04.17 тихо ()   20000 м    10/9 1000 м кучево-дожд., верхняя 
[Cb cap|Cs]
+2.7 -1.2 75 +3  1015.6  -1.3  739  295           
00 27.04.17 250 (З) 4{10}  20000 м    9/4 1000 м средняя, верхняя 
[Sc|Ac lent|Ci fib]
+10.1 -2.1 42 +9  1012.7  -1.9  737  287  +2.7        влажная 
03 27.04.17 250 (З) 6-12{13}  20000 м    8/6 1000 м кучево-дожд., верхняя 
[Cb cap|Ci fib]
+14.4 -1.6 33 +14  1010.1  -2.1  736  282           
06 27.04.17 250 (З) 6-10{13}  20000 м    8/8 1000 м кучево-дожд. 
[Cb cap]
+16.5 -1.9 28 +16  1007  -2.8  734  279           
09 27.04.17 290 (З) 3{13}  20000 м    9/4 1000 м кучево-дожд., верхняя 
[Cb cap|Cs]
+17.2 -2.1 27 +18  1005.1  -1.8  732  278           
12 27.04.17 260 (З) 3{10}  20000 м    9/3 1000 м кучево-дожд., верхняя 
[Cb cap|Ci fib]
+15.3 -0.7 33 +16  1005.2  -0.1  732  279    +18.4       
15 27.04.17 тихо ()   н/о    8/1 1000 м верхняя 
[Sc diur, vesp|Ci fib]
+5.5 -0.3 66 +6  1008.1  1.8  734  290           
18 27.04.17 тихо ()   н/о    9/0 верхняя 
[Cs]
+3 -0.5 78 +3  1008.3  734  292           
21 27.04.17 090 (В) 20000 м    10/8 1000 м кучево-дожд., верхняя 
[Cb cap|Cs]
+2.2 -0.3 84 +3  1006.3  -2.1  732  293           
00 28.04.17 090 (В) 10 км  слаб. ливневой дождь  10/10 600 м кучево-дожд. 
[Cb cap]
+2.2 +1.4 94 +1  1002.6  -3.6  729  291  +1.9      влажная 
03 28.04.17 100 (В) 20000 м  {ливн. осадки}  10/10 600 м кучево-дожд. 
[Cb cap]
+5 +4.1 94 +4  995.8  -6.2  725  286           
06 28.04.17 120 (ЮВ) 10 км  в посл. час ливневой дождь  9/5 600 м кучево-дожд., верхняя 
[Cb cap|Ci fib]
+6.7 +6.3 97 +7  989.8  -5.7  720  282           
09 28.04.17 270 (З) 8{19}  20000 м  {ливн. осадки}  8/8 1000 м кучево-дожд. 
[Cb cap]
+15.2 -4.6 25 +14  989.2  0.2  721  275           
Время (UTC), дата Ветер
(°,м/с) 
Видим.   Явления Облачность Т
(°С)
Тd
(°С)
f(%) Тe
(°С)
Pmin
(гПа)
dP
(гПа)
Po
(мм)
O2
(г/м3)
Тmin Tmax R s Состояние
почвы

Для получения пояснительной информации подведите курсор к названию столбца.

ПОГОДА в Мамакане - архив

Всё, что Вы хотите узнать о погоде в Мамакане - удобно и подробно!

Выберите нужную дату (начиная с 1 января 2015* года) и нажмите кнопку "Найти".
Будут отображены архивные сводки погоды по пункту Мамакан, начиная с указанной даты.


Отображать данные в формате CSV (для использования в таблицах Excel)


Внимание! Наш архив погоды предназначен исключительно для личного некоммерческого использования в познавательных целях. Если Вам необходимы официальные справки о состоянии погоды (для производственных, юридических, коммерческих и т.п. целей), обращайтесь в органы Росгидромета.

*Примечание: данная дата относится к архиву по метеостанциям СССР (Россия, СНГ, Балтия).
Архив по метеостанциям Зарубежной Европы и Азии (кроме Китая) хранится 10 дней, по другим регионам земного шара (Китай, Африка, Америка, Австралия, Океания) - 1 день.

Мамакан - район местоположения метеостанции


Название, широта, долгота, высота метеостанции:
Мамакан 57.82°ш. 114°д. 249 м над ур. моря [Российская Федерация]

Дополнительная информация

В oтличие oт бoльшинства пoгoдных сайтoв мы публикуем пoдрoбную метеoинфoрмацию в детальнoм прoфессиoнальнoм фoрмате.

Характеристики температуры и влажнoсти вoздуха измеряются на высoте 2 м в тени вдали oт зданий и деревьев.
Скoрoсть ветра измеряется на высoте 10 м (на урoвне рoста челoвека скoрoсть ветра ниже в 1.5-2 раза). Если метеoстанция нахoдится в гoрoде или в лесу, тo скoрoсть ветра занижена на 2-4 м/с пo сравнению с oткрытым местoм. Скoрoсть ветра над акватoриями крупных рек и oзёр, а также на вершинах хoлмoв на 2-5 м/с выше, чем в oбычных услoвиях.
Атмoсфернoе давление в разных тoчках местнoсти мoжет значительнo oтличаться oт давления на метеoстанции, в зависимoсти oт услoвий рельефа (при пoдъёме на 10 м давление пoнижается примернo на 1 мм рт.ст.).